Location: Antioch
(38.0049°N, 121.8058°W)
Time: 02:42:19
(UTC+00:00)

Cosmos 1570 Rocket - Pass Details

Date: 11 February 2026
Orbit: 760 x 783 km, 74.1° (Epoch: 7 March)

Event Time Altitude Azimuth Distance (km) Brightness Sun altitude
Exits shadow 13:31:54 - 337° (NNW) 2,638 6.5 -18.2°
Reaches altitude 10° 13:32:46 10° 336° (NNW) 2,298 6.2 -18.0°
Maximum altitude 13:37:55 66° 255° (WSW) 831 3.9 -17.0°
Drops below altitude 10° 13:43:03 10° 174° (S) 2,284 6.6 -16.0°
Sets 13:45:25 0° 171° (S) 3,207 7.4 -15.5°
